General Aviation Weather

Text Reports

Enter one or more of the following location identifiers separated by a space:

Zip Code, Four-Character ICAO or Three-Character IATA airport codes.

METAR - Aviation Routine Weather Report
KLLJ - Challis, Idaho
Updated at 11:55 AM GMT on September 02, 2014 (5:55 AM MDT):
METAR KLLJ 021155Z AUTO 01004KT 10SM CLR 07/02 A3005 RMK AO2 SLP131 T00720022 10150 20061 55000
TAF - Terminal Area Forecast
KLLJ - Challis, Idaho
Updated at 11:55 AM GMT on September 02, 2014 (5:55 AM MDT):
No TAF is currently available for this location.
Decoded:
No decoded TAF is available.
PIREP - Pilot Weather Report
KLLJ - Challis, Idaho
Updated at 11:55 AM GMT on September 02, 2014 (5:55 AM MDT):
No PIREP is currently available for this location.
AIRMET - Airmens Meteorological Information
KLLJ - Challis, Idaho
Updated at 11:55 AM GMT on September 02, 2014 (5:55 AM MDT):
No AIRMET is currently available for this location.
SIGMET - Significant Meteorological Information
KLLJ - Challis, Idaho
Updated at 11:55 AM GMT on September 02, 2014 (5:55 AM MDT):
No SIGMET is currently available for this location.
NOTAM - Notice to Airmen
KLLJ - Challis, Idaho
Updated at 11:55 AM GMT on September 02, 2014 (5:55 AM MDT):
No NOTAM is currently available for this location.
Forecast Area
KLLJ - Challis, Idaho
Updated at 11:55 AM GMT on September 02, 2014 (5:55 AM MDT):
No NOTAM is currently available for this location.
Aviation Weather Maps